User: anonymous   Login
Location: Camp at the Woods
(43.2055°N, 93.0905°W)
Time: 11:49:49
(UTC+00:00)
Language:

Cosmos 1603 - Orbit

View from above orbital plane
View from above orbital plane
View from above satellite
View from above satellite

Ground track
Ground track

The orbit data is extracted from the following two-line orbital elements,

1 15333U 84106A   24114.78004716  .00000361  00000-0  21308-3 0  9996
2 15333  71.0255 251.4087 0019633 350.9649   9.1117 14.14310131 41825
Epoch (UTC): 23 April 2024 18:43:16
Eccentricity: 0.0019633
inclination: 71.0255°
perigee height: 830 km
apogee height: 859 km
right ascension of ascending node: 251.4087°
argument of perigee: 350.9649°
revolutions per day: 14.14310131
mean anomaly at epoch: 9.1117°
orbit number at epoch: 4182

The dashed part of the orbit path shows where the satellite is in the earth's shadow,  

DLR